| time (UTC) | temp F | wind direction | speed MPH | gust MPH | rain 1hr in | rain 24hr in | rain mn in | humidity % | barometer mb |
| 20260510200059 | 48 | 161 | 3.0 | 8.0 | 0.00 | 0.30 | 0.30 | 85 | 1013.4 |
| 20260510194617 | 49 | 245 | 4.0 | 11.0 | 0.00 | 0.30 | 0.30 | 84 | 1013.1 |
| 20260510193059 | 49 | 251 | 5.0 | 11.0 | 0.00 | 0.30 | 0.30 | 83 | 1012.9 |
| 20260510191618 | 50 | 226 | 3.0 | 10.0 | 0.00 | 0.30 | 0.30 | 83 | 1012.8 |
| 20260510190108 | 50 | 248 | 5.0 | 13.0 | 0.00 | 0.30 | 0.30 | 81 | 1012.7 |
| 20260510184602 | 51 | 223 | 7.0 | 17.0 | 0.00 | 0.31 | 0.30 | 79 | 1012.3 |
| 20260510183104 | 50 | 323 | 7.0 | 17.0 | 0.00 | 0.31 | 0.30 | 80 | 1012.3 |
| 20260510181606 | 50 | 203 | 8.0 | 17.0 | 0.00 | 0.31 | 0.30 | 80 | 1012.3 |
| 20260510180104 | 51 | 202 | 6.0 | 14.0 | 0.00 | 0.31 | 0.30 | 79 | 1012.2 |
| 20260510174607 | 52 | 252 | 8.0 | 18.0 | 0.00 | 0.39 | 0.30 | 78 | 1012.2 |
| 20260510173104 | 52 | 222 | 8.0 | 18.0 | 0.00 | 0.39 | 0.30 | 77 | 1012.2 |
| 20260510171558 | 52 | 246 | 7.0 | 18.0 | 0.00 | 0.39 | 0.30 | 77 | 1012.1 |
| 20260510170115 | 52 | 266 | 7.0 | 16.0 | 0.00 | 0.39 | 0.30 | 77 | 1012.0 |
| 20260510164623 | 52 | 221 | 7.0 | 22.0 | 0.00 | 0.39 | 0.30 | 78 | 1012.1 |
| 20260510163105 | 52 | 206 | 11.0 | 20.0 | 0.00 | 0.39 | 0.30 | 80 | 1012.2 |
| 20260510161600 | 51 | 264 | 11.0 | 17.0 | 0.00 | 0.39 | 0.30 | 82 | 1012.3 |
| 20260510160132 | 51 | 98 | 5.0 | 15.0 | 0.00 | 0.39 | 0.30 | 83 | 1012.3 |
| 20260510154607 | 51 | 252 | 8.0 | 18.0 | 0.00 | 0.41 | 0.30 | 81 | 1012.4 |
| 20260510153059 | 51 | 205 | 9.0 | 18.0 | 0.00 | 0.41 | 0.30 | 82 | 1012.3 |
| 20260510151603 | 51 | 218 | 8.0 | 19.0 | 0.00 | 0.41 | 0.30 | 80 | 1012.3 |
| 20260510144622 | 52 | 186 | 9.0 | 17.0 | 0.00 | 0.48 | 0.30 | 79 | 1012.3 |
| 20260510143100 | 52 | 141 | 5.0 | 11.0 | 0.00 | 0.48 | 0.30 | 80 | 1012.2 |
| 20260510141559 | 51 | 276 | 7.0 | 15.0 | 0.00 | 0.48 | 0.30 | 82 | 1012.3 |
| 20260510140101 | 50 | 224 | 7.0 | 18.0 | 0.00 | 0.48 | 0.30 | 85 | 1012.5 |
| 20260510134605 | 49 | 230 | 10.0 | 23.0 | 0.00 | 0.48 | 0.30 | 89 | 1012.7 |
| 20260510133100 | 49 | 152 | 9.0 | 16.0 | 0.00 | 0.47 | 0.29 | 88 | 1012.9 |
| 20260510131559 | 48 | 200 | 12.0 | 22.0 | 0.06 | 0.47 | 0.29 | 89 | 1013.0 |
| 20260510130100 | 48 | 236 | 12.0 | 26.0 | 0.16 | 0.47 | 0.29 | 90 | 1012.9 |
| 20260510124612 | 47 | 225 | 9.0 | 19.0 | 0.16 | 0.47 | 0.29 | 92 | 1013.2 |
| 20260510123100 | 45 | 218 | 10.0 | 26.0 | 0.15 | 0.46 | 0.29 | 91 | 1013.2 |
| 20260510121559 | 47 | 262 | 16.0 | 29.0 | 0.10 | 0.40 | 0.23 | 86 | 1013.0 |
| 20260510120057 | 53 | 264 | 8.0 | 16.0 | 0.00 | 0.30 | 0.13 | 78 | 1011.9 |
| 20260510114558 | 54 | 141 | 6.0 | 17.0 | 0.00 | 0.30 | 0.13 | 77 | 1012.1 |
| 20260510113104 | 53 | 216 | 7.0 | 14.0 | 0.00 | 0.30 | 0.13 | 81 | 1012.2 |
| 20260510111600 | 52 | 199 | 8.0 | 17.0 | 0.00 | 0.30 | 0.13 | 82 | 1012.4 |
| 20260510110100 | 51 | 231 | 4.0 | 12.0 | 0.00 | 0.30 | 0.13 | 86 | 1012.5 |
| 20260510104605 | 51 | 347 | 10.0 | 18.0 | 0.00 | 0.30 | 0.13 | 84 | 1012.8 |
| 20260510103059 | 52 | 149 | 9.0 | 16.0 | 0.00 | 0.29 | 0.12 | 81 | 1012.7 |
| 20260510101601 | 52 | 251 | 5.0 | 13.0 | 0.00 | 0.29 | 0.12 | 83 | 1012.8 |
| 20260510100058 | 51 | 226 | 7.0 | 17.0 | 0.00 | 0.29 | 0.12 | 83 | 1012.8 |
| 20260510094613 | 51 | 235 | 2.0 | 7.0 | 0.01 | 0.29 | 0.12 | 87 | 1012.9 |
| 20260510093119 | 50 | 250 | 3.0 | 13.0 | 0.03 | 0.29 | 0.12 | 88 | 1013.1 |
| 20260510091601 | 49 | 229 | 3.0 | 6.0 | 0.04 | 0.29 | 0.12 | 89 | 1013.1 |
| 20260510090059 | 48 | 205 | 5.0 | 10.0 | 0.05 | 0.29 | 0.12 | 89 | 1013.2 |
| 20260510084603 | 47 | 221 | 6.0 | 13.0 | 0.03 | 0.28 | 0.11 | 88 | 1013.4 |
| 20260510083103 | 48 | 262 | 6.0 | 15.0 | 0.01 | 0.25 | 0.08 | 88 | 1013.4 |
| 20260510081559 | 49 | 246 | 6.0 | 13.0 | 0.00 | 0.25 | 0.07 | 86 | 1013.5 |
| 20260510080100 | 49 | 230 | 8.0 | 15.0 | 0.00 | 0.24 | 0.07 | 86 | 1013.3 |
| 20260510074600 | 49 | 257 | 5.0 | 13.0 | 0.00 | 0.24 | 0.07 | 87 | 1013.2 |
| 20260510073100 | 49 | 210 | 6.0 | 15.0 | 0.00 | 0.24 | 0.07 | 88 | 1013.1 |
| 20260510071558 | 48 | 173 | 5.0 | 14.0 | 0.00 | 0.24 | 0.07 | 90 | 1013.1 |
| 20260510070058 | 47 | 237 | 6.0 | 13.0 | 0.00 | 0.24 | 0.07 | 90 | 1012.9 |
| 20260510064557 | 47 | 169 | 6.0 | 12.0 | 0.00 | 0.24 | 0.07 | 92 | 1012.9 |
| 20260510063059 | 46 | 226 | 6.0 | 13.0 | 0.00 | 0.24 | 0.07 | 92 | 1012.7 |
| 20260510061557 | 46 | 217 | 5.0 | 12.0 | 0.00 | 0.24 | 0.07 | 93 | 1012.7 |
| 20260510054559 | 45 | 224 | 4.0 | 17.0 | 0.00 | 0.24 | 0.07 | 93 | 1012.7 |
| 20260510053105 | 45 | 224 | 4.0 | 9.0 | 0.00 | 0.24 | 0.07 | 93 | 1012.4 |
| 20260510051558 | 45 | 232 | 4.0 | 10.0 | 0.00 | 0.24 | 0.07 | 93 | 1012.5 |
| 20260510050058 | 45 | 264 | 5.0 | 10.0 | 0.00 | 0.24 | 0.07 | 93 | 1012.4 |
| 20260510044557 | 45 | 209 | 2.0 | 12.0 | 0.00 | 0.24 | 0.07 | 93 | 1012.5 |
| 20260510043105 | 45 | 212 | 3.0 | 9.0 | 0.00 | 0.24 | 0.07 | 92 | 1012.6 |
| 20260510041600 | 45 | 194 | 3.0 | 11.0 | 0.00 | 0.24 | 0.07 | 92 | 1012.4 |
| 20260510040101 | 46 | 232 | 8.0 | 16.0 | 0.00 | 0.24 | 0.07 | 92 | 1012.5 |
| 20260510034557 | 46 | 247 | 11.0 | 19.0 | 0.00 | 0.24 | 0.07 | 92 | 1012.5 |
| 20260510033112 | 46 | 248 | 10.0 | 15.0 | 0.00 | 0.24 | 0.07 | 92 | 1012.6 |
| 20260510031558 | 46 | 214 | 8.0 | 16.0 | 0.00 | 0.24 | 0.07 | 92 | 1012.8 |
| 20260510030104 | 46 | 162 | 7.0 | 17.0 | 0.00 | 0.24 | 0.07 | 92 | 1012.8 |
| 20260510024610 | 45 | 312 | 4.0 | 14.0 | 0.00 | 0.24 | 0.07 | 92 | 1012.8 |
| 20260510023058 | 46 | 260 | 5.0 | 11.0 | 0.00 | 0.24 | 0.07 | 92 | 1012.7 |
| 20260510020100 | 46 | 239 | 7.0 | 12.0 | 0.00 | 0.24 | 0.07 | 92 | 1012.9 |
| 20260510014557 | 46 | 229 | 4.0 | 8.0 | 0.00 | 0.24 | 0.07 | 92 | 1013.1 |
| 20260510013057 | 46 | 264 | 7.0 | 16.0 | 0.00 | 0.24 | 0.07 | 92 | 1013.3 |
| 20260510011557 | 46 | 233 | 8.0 | 15.0 | 0.00 | 0.24 | 0.07 | 92 | 1013.4 |
| 20260510010109 | 46 | 263 | 5.0 | 13.0 | 0.00 | 0.24 | 0.07 | 92 | 1013.6 |
| 20260510004602 | 46 | 250 | 7.0 | 14.0 | 0.00 | 0.24 | 0.07 | 91 | 1013.6 |
| 20260510003103 | 46 | 224 | 4.0 | 10.0 | 0.00 | 0.24 | 0.07 | 92 | 1013.8 |
| 20260510001600 | 46 | 266 | 2.0 | 7.0 | 0.00 | 0.24 | 0.07 | 92 | 1013.8 |
| 20260509234601 | 46 | 229 | 2.0 | 11.0 | 0.00 | 0.24 | 0.07 | 92 | 1013.8 |
| 20260509233101 | 46 | 240 | 6.0 | 12.0 | 0.01 | 0.23 | 0.06 | 92 | 1013.5 |
| 20260509231601 | 46 | 257 | 6.0 | 18.0 | 0.06 | 0.23 | 0.06 | 92 | 1013.7 |
| 20260509230059 | 46 | 256 | 7.0 | 16.0 | 0.06 | 0.23 | 0.06 | 92 | 1013.6 |
| 20260509224600 | 47 | 221 | 9.0 | 25.0 | 0.06 | 0.23 | 0.06 | 92 | 1013.5 |
| 20260509223104 | 48 | 293 | 18.0 | 27.0 | 0.04 | 0.22 | 0.04 | 87 | 1013.6 |
| 20260509221603 | 50 | 172 | 5.0 | 16.0 | 0.00 | 0.17 | 0.00 | 88 | 1012.7 |
| 20260509214628 | 50 | 203 | 7.0 | 14.0 | 0.00 | 0.17 | 0.17 | 89 | 1013.0 |
| 20260509213103 | 50 | 246 | 6.0 | 14.0 | 0.00 | 0.17 | 0.17 | 89 | 1013.0 |
| 20260509211601 | 49 | 189 | 5.0 | 11.0 | 0.00 | 0.17 | 0.17 | 90 | 1012.8 |
| 20260509210107 | 49 | 190 | 1.0 | 3.0 | 0.00 | 0.17 | 0.17 | 91 | 1012.7 |
| 20260509204558 | 49 | 0 | 0.0 | 3.0 | 0.00 | 0.17 | 0.17 | 90 | 1012.6 |
| 20260509203115 | 50 | 0 | 0.0 | 1.0 | 0.00 | 0.17 | 0.17 | 90 | 1012.4 |
| 20260509201559 | 50 | 0 | 0.0 | 2.0 | 0.00 | 0.17 | 0.17 | 91 | 1012.3 |